TimeEDT,TemperatureF,Dew PointF,Humidity,Sea Level PressureIn,VisibilityMPH,Wind Direction,Wind SpeedMPH,Gust SpeedMPH,PrecipitationIn,Events,Conditions,WindDirDegrees,DateUTC
12:51 AM,52.0,48.9,89,30.05,10.0,Calm,Calm,-,N/A,,Clear,0,2013-10-11 04:51:00
1:51 AM,50.0,48.0,93,30.05,8.0,Calm,Calm,-,N/A,,Clear,0,2013-10-11 05:51:00
2:51 AM,51.1,48.0,89,30.05,10.0,Calm,Calm,-,N/A,,Clear,0,2013-10-11 06:51:00
3:51 AM,50.0,48.0,93,30.03,9.0,Calm,Calm,-,N/A,,Clear,0,2013-10-11 07:51:00
4:51 AM,48.9,46.9,93,30.04,6.0,Calm,Calm,-,N/A,,Clear,0,2013-10-11 08:51:00
5:51 AM,46.9,46.0,97,30.05,2.5,Calm,Calm,-,N/A,,Clear,0,2013-10-11 09:51:00
6:05 AM,48.2,46.4,93,30.06,4.0,Calm,Calm,-,N/A,,Clear,0,2013-10-11 10:05:00
6:51 AM,48.0,46.0,93,30.06,6.0,Calm,Calm,-,N/A,,Clear,0,2013-10-11 10:51:00
7:42 AM,48.2,46.4,93,30.07,1.2,Calm,Calm,-,N/A,,Clear,0,2013-10-11 11:42:00
7:51 AM,46.9,45.0,93,30.07,10.0,Calm,Calm,-,N/A,,Clear,0,2013-10-11 11:51:00
8:51 AM,54.0,50.0,86,30.08,10.0,Calm,Calm,-,N/A,,Clear,0,2013-10-11 12:51:00
9:51 AM,59.0,51.1,75,30.09,10.0,Calm,Calm,-,N/A,,Clear,0,2013-10-11 13:51:00
10:51 AM,64.0,51.1,63,30.09,10.0,Calm,Calm,-,N/A,,Clear,0,2013-10-11 14:51:00
11:51 AM,69.1,52.0,54,30.08,10.0,West,3.5,-,N/A,,Clear,270,2013-10-11 15:51:00
12:51 PM,71.1,52.0,51,30.06,10.0,Variable,5.8,-,N/A,,Clear,0,2013-10-11 16:51:00
1:51 PM,71.1,54.0,55,30.04,10.0,NW,6.9,-,N/A,,Scattered Clouds,320,2013-10-11 17:51:00
2:51 PM,75.9,55.0,48,30.01,10.0,NW,4.6,-,N/A,,Clear,320,2013-10-11 18:51:00
3:51 PM,78.1,55.9,46,30.00,10.0,Variable,6.9,-,N/A,,Scattered Clouds,0,2013-10-11 19:51:00
4:51 PM,77.0,55.0,47,29.99,10.0,North,9.2,-,N/A,,Overcast,10,2013-10-11 20:51:00
5:51 PM,73.9,55.0,52,30.00,10.0,NNE,5.8,-,N/A,,Overcast,20,2013-10-11 21:51:00
6:51 PM,72.0,53.1,51,30.01,10.0,North,3.5,-,N/A,,Overcast,360,2013-10-11 22:51:00
7:51 PM,69.1,57.0,65,30.03,10.0,East,9.2,-,N/A,,Overcast,80,2013-10-11 23:51:00
8:51 PM,66.9,57.9,73,30.03,10.0,East,8.1,-,N/A,,Overcast,80,2013-10-12 00:51:00
9:51 PM,66.0,57.0,73,30.04,10.0,East,6.9,-,N/A,,Overcast,80,2013-10-12 01:51:00
10:51 PM,64.0,57.0,78,30.04,10.0,East,4.6,-,N/A,,Mostly Cloudy,80,2013-10-12 02:51:00
11:51 PM,61.0,55.9,83,30.04,10.0,East,5.8,-,N/A,,Clear,80,2013-10-12 03:51:00